Theta_e
338 341 342 341 341 344 344 343 343 343 344 344 344 344 345 346 346 346 346 345 345 344 340 339 338 336 334 336 337 336 335 336 336 337 335 334 334 333 334 334 336 339 340 341 342 342 341 340 339 339 339 338 339 339 339 338 337 337 337 337 336 335 334 333 334 335 336 337 337 337 337 336 336 334 334 333 332 332 334 336 336 336 335 335 335
338 341 342 343 343 343 344 345 344 344 344 344 345 345 345 345 346 346 346 345 345 345 342 340 339 338 336 335 336 336 335 335 335 336 335 334 334 335 336 334 334 337 339 341 341 342 342 341 340 339 339 339 339 339 339 339 338 338 339 337 337 336 335 335 334 335 335 336 336 336 336 337 337 336 335 335 334 333 332 333 334 335 336 336 335
339 342 343 345 344 344 345 345 346 345 345 346 346 346 346 346 346 346 346 345 344 344 342 341 339 339 337 335 334 334 335 335 334 334 335 334 333 334 336 335 334 336 339 340 340 341 341 341 341 340 339 339 339 339 339 340 339 339 339 339 338 337 336 336 336 335 335 335 335 335 335 335 336 336 336 336 336 336 335 334 333 334 335 335 335
340 342 344 346 346 345 345 346 346 346 346 346 346 346 346 347 346 346 346 345 345 345 342 340 339 338 338 338 336 333 334 336 335 334 335 335 333 334 336 336 336 336 337 338 339 340 341 342 342 341 340 340 339 339 338 339 340 339 340 340 339 338 337 336 336 336 335 335 334 334 334 335 335 335 336 337 336 337 337 336 335 335 334 334 334
341 343 345 346 346 346 346 346 346 347 347 346 346 347 347 347 347 346 347 346 346 346 344 341 339 339 338 339 337 332 331 335 335 335 335 335 334 334 336 337 337 336 336 336 337 339 341 341 342 341 341 341 341 340 339 339 339 339 339 339 339 339 339 338 337 336 335 335 335 334 334 335 335 335 336 336 336 336 336 336 336 336 336 335 335
342 344 345 346 347 347 347 347 347 347 346 346 346 347 347 348 348 347 347 347 346 345 345 344 341 340 339 339 335 329 329 333 334 334 334 334 334 335 336 337 337 337 337 336 336 336 338 341 342 342 341 341 341 341 340 340 340 339 339 338 338 338 338 339 338 337 337 336 336 335 335 335 335 334 334 334 334 333 334 334 334 334 335 335 335
343 344 345 346 346 346 347 347 347 346 346 346 346 346 346 347 347 347 347 348 347 345 345 345 343 341 340 339 335 329 331 335 335 335 334 334 334 335 336 336 337 338 337 337 336 335 335 337 340 341 341 341 341 341 340 340 340 340 339 339 339 338 338 338 339 338 338 338 337 337 337 337 336 335 335 335 334 332 332 332 332 332 332 332 333
342 343 344 345 345 345 345 345 346 346 345 346 345 345 345 346 346 346 346 347 346 346 345 345 345 342 340 339 335 331 333 336 336 335 335 334 335 336 336 335 335 336 338 338 337 337 336 335 336 337 339 340 341 340 340 340 340 341 340 340 339 339 338 338 338 338 338 338 338 338 338 338 338 337 336 335 335 335 334 334 333 333 332 332 332
341 342 343 344 344 343 343 344 344 344 344 345 344 344 343 344 344 344 345 346 346 346 346 346 345 343 341 339 336 331 333 336 336 336 335 336 336 336 336 334 333 333 336 337 337 338 339 338 337 336 336 338 339 340 340 340 340 341 341 340 340 339 339 339 338 338 338 338 338 338 338 338 338 338 336 335 336 337 337 336 336 336 335 334 333
342 343 344 345 345 344 344 345 345 344 343 343 343 343 343 342 343 343 344 346 346 346 346 346 345 343 342 340 336 331 331 335 336 335 335 337 337 336 335 333 332 331 331 332 334 337 339 340 339 338 337 336 336 336 337 338 339 340 340 340 340 340 340 340 339 339 339 338 338 338 337 337 338 338 337 336 336 337 337 337 337 337 336 336 336
344 346 347 348 348 347 347 348 347 346 345 344 343 342 342 343 343 343 345 346 346 346 346 347 346 343 342 340 337 334 332 334 336 336 334 336 336 336 336 334 332 330 329 329 330 332 335 338 339 339 339 337 336 335 336 337 338 339 338 339 339 340 340 340 341 340 340 339 339 339 338 339 339 339 337 337 337 337 337 337 337 337 337 337 337
346 347 349 349 349 348 349 349 348 347 346 344 343 343 343 343 344 344 346 347 346 346 346 346 346 344 342 340 338 337 335 333 336 336 335 335 335 336 336 335 332 330 329 328 328 328 329 332 335 336 338 338 336 336 337 337 337 337 337 338 338 339 339 339 340 341 340 340 340 340 340 340 340 339 338 339 339 338 338 337 337 337 337 337 337
347 348 349 349 349 349 350 349 348 347 345 344 343 343 344 344 345 346 346 346 345 345 345 345 346 344 342 340 338 338 336 332 334 337 336 335 335 335 335 335 334 331 329 327 326 326 325 327 329 330 332 334 335 336 337 336 336 336 336 336 337 337 338 338 338 339 339 339 339 340 340 340 340 339 338 338 338 338 338 338 338 338 338 338 338
347 348 348 348 349 350 350 350 349 347 345 344 344 345 345 345 345 346 347 346 345 345 344 345 345 343 341 340 338 337 333 330 332 336 336 335 335 335 334 335 335 331 329 328 325 324 324 324 325 325 325 326 329 333 335 336 336 335 335 336 336 336 336 337 337 338 338 338 338 339 339 339 340 339 338 339 339 338 338 338 338 338 338 338 338
347 347 347 347 349 350 351 350 349 347 346 346 347 347 346 345 345 346 346 345 345 344 344 344 343 342 340 338 338 336 334 333 334 335 335 334 333 335 335 334 335 331 328 327 323 321 324 325 326 325 324 324 326 329 331 333 333 333 333 335 334 332 330 331 333 336 336 336 337 337 337 337 337 336 336 336 337 338 338 338 338 338 339 338 338
345 345 345 347 348 349 350 351 350 349 348 348 348 348 347 345 345 346 346 345 345 344 345 344 343 343 339 336 335 335 337 338 337 334 333 333 332 334 335 334 334 331 328 328 323 321 326 328 328 327 326 325 325 327 328 328 329 330 329 329 327 324 322 321 323 326 328 328 329 328 327 326 325 326 326 327 327 330 333 335 336 338 338 338 338
344 344 344 345 348 349 350 350 350 350 349 349 348 347 347 346 345 345 345 345 345 345 345 344 344 343 337 334 335 336 338 338 338 335 332 332 332 334 335 335 335 332 328 327 323 323 328 329 329 329 328 326 324 323 323 322 323 324 322 321 319 318 317 316 317 317 318 318 318 317 317 316 316 317 317 318 318 319 322 324 326 329 332 334 336
343 344 344 345 347 349 350 350 350 350 350 349 348 347 347 347 345 345 345 345 345 345 345 343 341 338 333 333 335 337 339 337 338 338 334 333 333 334 336 334 334 332 328 326 324 324 328 330 330 330 330 329 325 321 319 318 318 319 319 319 319 318 318 319 318 318 317 317 316 316 316 315 315 315 315 315 315 315 316 317 318 319 321 323 325
343 344 344 345 347 349 349 350 350 350 350 349 348 348 348 348 345 344 345 345 342 341 343 342 337 331 330 334 335 336 338 338 338 339 337 336 335 335 336 334 334 332 328 326 326 326 328 329 330 330 330 330 327 322 318 319 320 322 322 323 322 322 322 323 322 322 321 320 319 319 319 318 317 317 316 315 315 315 315 315 315 315 315 316 316
342 343 344 345 346 347 349 349 350 350 350 349 348 348 349 348 346 343 343 342 339 336 339 338 333 329 330 335 337 336 337 337 338 339 339 338 337 335 335 335 334 334 330 327 326 327 327 328 330 331 330 331 330 326 323 324 325 325 325 324 324 324 324 324 325 324 323 323 322 322 322 321 321 319 318 317 316 316 316 315 315 315 315 315 314
342 342 343 344 345 346 348 349 348 348 348 348 348 348 348 347 346 343 340 339 335 334 334 331 330 331 331 333 336 336 336 336 336 337 338 339 339 337 335 334 334 334 331 328 327 327 327 327 329 331 331 331 331 330 328 328 327 327 326 325 325 326 326 325 325 325 325 324 324 323 323 322 322 322 321 319 318 318 318 318 317 317 317 317 316
341 341 342 343 344 345 346 346 346 346 347 348 348 348 348 347 345 342 339 336 332 331 330 327 327 331 333 334 335 335 334 335 335 336 337 337 338 338 336 335 335 335 333 330 328 327 328 328 328 330 332 331 331 331 331 330 329 328 328 327 328 328 327 326 325 325 325 324 324 323 323 323 323 323 322 321 321 320 319 319 319 318 318 317 317
339 341 341 342 342 343 343 344 344 346 347 348 348 348 348 346 344 341 337 333 330 329 327 325 325 329 333 334 334 334 334 333 335 335 336 337 337 337 337 336 335 335 333 332 329 328 328 328 328 329 331 332 331 331 331 331 331 329 329 329 328 328 328 327 325 325 325 325 324 324 324 324 324 324 324 324 323 322 321 320 319 318 317 317 317
338 340 341 341 341 340 341 342 342 344 346 347 347 347 347 345 343 339 335 331 328 327 325 323 323 328 332 333 333 334 333 332 333 333 335 337 337 337 337 335 334 334 333 332 331 329 328 328 328 329 330 331 332 331 331 331 331 331 330 329 329 328 328 328 326 325 325 326 325 325 325 325 325 325 325 325 325 325 324 323 321 319 318 317 318
336 337 338 339 339 338 337 338 339 341 345 347 347 347 346 344 341 338 333 328 326 326 325 323 324 327 331 332 333 334 333 332 332 331 332 335 335 336 336 334 334 334 333 332 332 331 330 329 329 329 329 330 331 332 331 331 331 331 330 330 329 328 328 328 327 325 325 326 326 326 326 326 326 326 326 326 326 326 325 325 324 323 321 320 319
335 335 335 336 337 336 335 336 337 341 345 347 347 346 346 344 341 336 331 326 324 326 326 324 325 327 329 332 332 334 334 333 333 332 333 334 335 335 334 333 333 333 332 332 331 331 331 330 330 329 330 330 330 331 332 332 331 331 330 330 329 328 328 328 327 326 325 325 325 326 326 326 326 327 327 327 327 326 326 326 325 325 324 323 322
335 335 335 335 335 335 335 335 338 342 345 347 346 345 345 343 340 334 329 325 324 325 326 327 326 327 329 330 331 332 333 333 333 333 333 334 335 334 333 333 333 333 332 331 330 330 330 329 329 329 330 330 330 331 331 332 332 331 331 330 330 329 329 329 327 326 325 325 325 325 326 326 326 326 326 326 326 327 326 326 325 325 324 323 322
336 335 335 336 336 335 335 335 338 343 345 346 346 345 343 342 338 333 327 325 324 324 326 327 327 328 329 329 330 331 330 330 332 332 332 333 333 333 333 333 334 335 335 334 332 331 331 330 330 331 330 330 330 330 331 331 331 331 331 330 330 330 329 329 327 325 325 325 325 325 324 323 323 323 324 324 325 326 326 326 325 325 324 324 322
338 337 336 336 336 336 336 335 338 343 344 344 345 343 341 339 336 331 327 324 325 325 325 325 326 328 330 330 331 331 329 327 328 330 331 332 332 332 332 333 333 334 335 335 335 334 332 331 332 332 331 331 331 330 329 330 329 329 330 330 330 330 329 328 325 325 325 325 325 324 323 322 321 320 320 320 321 323 324 325 324 323 323 324 324
340 339 337 336 336 336 336 335 338 343 344 343 344 343 340 337 334 331 328 325 325 326 325 325 327 328 330 331 331 331 329 326 324 326 329 330 331 331 332 333 333 332 332 333 334 334 333 332 333 333 332 331 330 329 328 328 329 329 329 329 329 330 329 326 325 325 325 325 325 325 326 325 324 322 320 318 318 319 321 321 322 321 321 322 323
340 339 339 338 336 335 336 336 338 341 343 343 343 344 340 336 333 332 330 327 325 326 326 326 327 329 330 331 331 331 329 326 324 323 324 327 329 330 331 332 333 331 331 331 333 334 333 332 333 333 332 331 328 327 327 328 328 328 327 327 328 328 327 325 325 326 326 326 327 327 328 328 327 325 322 319 317 318 319 319 320 321 321 322 323
341 340 340 339 337 336 335 336 338 341 342 342 343 344 341 336 334 333 331 329 327 326 326 327 328 329 330 330 330 330 329 328 326 324 322 323 326 328 329 331 332 332 332 331 333 334 333 332 333 332 332 330 328 326 326 327 327 326 326 326 326 326 325 325 325 326 327 328 328 328 329 329 328 327 322 318 317 318 319 320 321 322 322 323 323
345 343 341 340 339 337 336 336 338 341 342 342 342 344 342 339 335 333 332 330 328 326 326 327 328 329 329 329 329 330 330 329 328 327 324 322 323 326 328 330 331 331 332 332 332 333 332 332 332 332 332 331 329 327 327 327 327 326 326 326 326 326 325 326 327 327 328 328 328 328 329 329 329 326 321 318 318 318 319 320 321 322 323 323 323
347 345 342 341 340 339 337 336 337 340 341 342 342 343 343 341 338 334 333 332 331 328 326 326 327 328 328 328 327 328 329 330 330 329 327 324 323 324 327 330 331 331 332 333 333 333 332 331 332 332 333 332 330 328 327 327 327 328 328 328 327 327 327 327 328 328 328 327 326 325 327 329 328 325 321 318 317 318 319 320 320 321 322 322 323
348 346 344 342 340 339 339 336 336 338 340 341 342 343 343 343 340 335 333 333 333 330 328 327 326 327 327 327 326 326 327 329 330 329 328 327 324 324 326 329 331 333 333 334 334 333 332 332 333 333 333 332 331 329 327 327 328 329 329 329 329 329 329 328 328 328 328 327 325 324 325 327 327 324 320 318 317 318 318 318 319 320 320 321 322
347 347 344 342 341 340 339 337 336 336 339 340 341 342 343 344 342 338 335 334 334 333 331 329 328 327 326 325 324 325 326 328 329 330 330 329 327 325 324 325 327 330 332 333 334 333 333 334 334 334 334 333 331 330 329 328 329 329 329 329 329 329 328 328 329 329 328 328 327 325 325 325 325 322 320 319 319 319 317 317 318 319 320 320 320
348 347 345 343 341 340 339 338 336 335 337 339 340 341 342 343 343 341 338 335 335 335 335 333 331 329 326 325 323 324 326 327 328 329 329 330 330 328 326 325 325 327 330 333 334 334 334 335 334 334 334 332 331 330 330 329 330 330 329 328 328 329 329 329 329 329 329 328 327 327 326 325 323 322 321 322 321 320 318 318 318 318 319 319 318
348 348 346 343 341 339 338 337 336 336 336 337 339 340 341 342 342 342 341 337 335 336 337 337 335 333 330 327 325 325 325 326 327 327 327 328 329 329 328 327 327 328 329 331 334 334 334 335 335 334 334 332 331 331 330 330 330 330 330 329 328 329 330 330 330 329 329 328 328 327 327 326 325 324 324 324 323 321 319 319 319 319 319 318 318
348 348 347 344 340 338 337 336 336 336 336 336 337 338 340 340 341 342 342 340 336 335 337 338 337 335 334 332 331 329 329 329 329 328 329 330 329 328 329 328 328 330 332 332 333 334 335 335 335 334 334 333 332 331 331 331 331 330 330 330 330 329 329 329 328 327 327 327 327 327 327 327 327 326 325 325 324 322 320 320 320 319 319 318 317
348 349 348 345 341 338 337 336 336 336 336 336 336 337 338 339 340 341 342 342 339 336 336 338 339 338 337 337 336 336 336 336 336 336 336 337 334 330 327 326 327 329 332 333 333 334 334 334 334 334 334 333 332 331 331 332 332 331 331 330 329 328 327 327 326 326 326 327 327 327 328 328 327 327 326 325 324 322 321 320 319 318 318 317 317
348 349 349 347 344 340 338 336 336 336 336 336 336 336 337 338 339 340 341 342 341 339 338 338 340 341 341 341 340 339 340 340 341 342 342 342 340 336 333 331 329 326 327 332 334 333 333 334 333 333 333 333 332 331 330 331 332 332 331 330 328 328 327 325 323 323 324 326 327 327 328 328 327 327 326 324 322 321 320 319 318 318 318 317 317
348 349 349 349 347 343 340 337 336 335 336 336 335 335 336 337 337 338 340 341 342 342 341 340 340 340 341 342 342 342 342 342 342 343 343 343 343 342 340 339 335 327 326 332 334 333 333 333 333 333 333 332 331 331 330 330 330 330 328 328 328 327 326 324 322 323 324 327 328 328 328 327 327 325 323 321 320 319 318 318 317 318 318 318 318
348 349 349 350 349 346 343 339 336 335 335 335 335 335 335 336 337 338 339 340 340 342 342 342 342 341 340 341 342 343 344 344 344 344 345 345 344 344 343 342 338 331 328 332 334 334 334 333 333 333 333 332 331 331 329 328 327 326 326 327 327 325 324 323 323 325 327 327 328 328 327 325 325 323 320 319 319 318 317 317 317 317 318 318 318
348 349 349 350 350 349 345 341 337 335 333 334 335 335 335 335 335 337 338 339 340 340 341 342 343 342 341 340 341 343 344 345 346 346 346 346 345 345 343 343 341 334 329 331 334 334 334 333 333 333 333 333 332 330 327 325 325 326 327 327 325 323 323 323 324 327 328 327 327 326 325 323 321 320 318 317 317 317 316 316 316 316 317 316 316
349 349 350 350 350 350 347 343 338 335 332 332 333 334 334 335 335 336 337 337 338 339 340 341 342 343 343 342 342 343 344 345 347 347 347 347 345 345 343 342 341 335 329 331 335 335 334 333 334 334 333 333 332 329 326 325 326 327 326 324 322 322 324 325 326 327 327 325 324 323 322 320 319 318 318 317 316 315 313 312 311 311 310 310 310
349 349 350 350 350 350 349 345 340 336 333 331 331 333 333 334 335 336 336 336 337 338 339 340 342 343 344 344 344 344 345 346 347 348 348 347 345 346 344 342 340 335 331 333 336 335 334 334 334 334 333 332 330 327 325 326 327 326 324 322 322 324 325 325 326 325 324 323 321 320 319 319 319 319 317 316 314 311 309 307 306 305 304 304 304
349 349 349 350 351 351 350 348 343 338 333 330 331 331 332 333 333 335 336 336 336 337 338 340 342 343 344 345 346 346 347 347 348 349 349 347 346 345 343 341 338 333 331 334 336 335 334 334 334 333 332 329 327 325 326 327 327 325 323 322 322 323 324 325 325 324 323 322 319 317 318 319 319 318 316 313 311 309 307 305 303 302 303 304 305
349 349 350 350 351 351 350 350 347 341 335 331 331 330 331 332 333 334 336 336 337 338 339 340 342 343 345 346 346 347 348 349 350 350 349 348 346 344 342 341 337 332 331 334 334 334 334 334 333 331 328 325 324 326 327 327 325 323 323 323 324 324 325 325 324 322 322 321 319 317 316 317 316 316 315 312 310 308 305 303 302 303 304 304 305
350 350 351 350 351 351 351 351 350 346 340 334 330 330 331 332 333 334 335 336 338 339 339 340 342 344 345 346 347 348 349 350 351 351 349 348 346 343 342 340 335 331 332 333 334 334 334 332 330 326 324 324 324 326 325 324 322 322 322 322 324 324 323 322 322 322 321 320 319 315 314 314 315 315 314 311 307 306 305 303 302 303 303 303 304
350 350 351 351 351 351 351 351 351 350 346 339 333 332 332 332 334 335 335 337 339 340 340 341 343 345 346 347 348 349 350 351 351 351 350 348 345 343 341 338 334 333 333 334 335 335 333 330 326 323 323 324 324 324 323 322 322 321 320 319 319 319 319 320 321 321 318 318 317 314 312 314 315 314 313 310 307 306 306 305 303 302 303 304 304
350 350 351 351 350 350 351 351 351 351 350 345 340 337 336 335 336 337 338 338 340 341 342 343 345 346 347 348 349 350 351 352 352 351 349 347 345 342 340 336 334 333 333 334 335 335 332 327 324 322 323 323 322 321 322 321 321 319 316 316 315 315 316 318 319 318 317 317 316 312 310 312 313 312 311 311 310 307 305 305 304 303 303 304 304
Wind_Speed
8 8 7 6 7 6 4 4 4 3 3 2 1 1 0 1 0 1 2 3 3 3 0 1 1 1 1 1 2 3 1 1 1 2 3 4 4 5 4 3 3 3 4 5 6 8 7 7 7 7 8 7 8 8 7 6 6 6 6 5 5 5 6 6 7 7 6 6 6 6 6 5 4 4 3 3 4 4 4 4 4 4 4 4 4
8 8 7 6 7 7 6 5 4 4 4 3 2 1 0 1 2 2 4 4 4 5 3 1 1 2 1 0 1 2 2 2 2 1 2 2 4 5 6 5 4 2 3 5 5 7 7 7 7 8 8 7 8 8 7 7 8 8 7 6 6 6 6 6 6 7 6 6 6 5 6 6 5 5 5 4 4 4 4 5 5 5 5 5 5
9 8 7 6 7 7 7 6 5 5 5 4 4 2 2 2 3 4 5 4 3 4 4 3 2 2 2 2 2 2 2 1 2 2 2 3 3 4 5 6 5 3 2 4 3 4 5 6 8 8 8 7 8 8 8 8 8 8 8 8 7 7 7 7 7 7 7 6 6 6 7 7 7 6 6 6 6 6 5 5 5 6 6 6 6
10 9 8 7 7 7 7 7 7 7 6 5 5 4 3 3 5 7 7 6 5 3 2 4 3 2 3 4 6 5 2 1 2 3 3 4 4 4 4 5 6 5 3 3 1 2 4 5 7 9 8 7 8 8 9 9 8 8 8 9 8 7 8 8 7 8 8 8 8 8 8 8 8 7 7 7 7 7 8 7 7 7 7 7 7
10 10 8 7 7 7 7 7 7 7 6 5 5 4 4 4 7 9 8 8 8 4 2 4 5 4 5 6 8 7 3 2 2 3 4 4 4 3 4 4 5 5 5 4 2 1 4 6 7 8 9 9 9 9 10 9 8 8 8 9 9 8 9 9 9 9 9 9 9 9 9 9 9 8 8 8 8 9 9 9 8 8 8 8 9
10 10 8 8 7 7 7 6 6 7 7 6 5 5 4 6 8 9 9 10 8 6 4 3 6 7 6 6 7 6 3 2 2 3 4 4 3 2 3 4 4 5 4 3 2 1 2 4 6 7 8 8 9 9 10 10 9 8 9 9 10 9 9 10 10 11 11 10 10 10 10 9 9 9 8 8 9 10 10 10 9 9 9 9 10
11 10 9 8 8 7 6 6 6 7 7 6 6 6 5 7 9 10 10 11 9 7 6 5 6 7 7 7 6 5 2 1 1 2 3 1 1 1 3 4 3 4 4 3 2 1 1 3 4 6 6 6 7 8 9 10 10 10 9 10 10 10 10 10 10 11 12 12 11 10 10 10 10 10 9 8 8 9 9 10 10 10 10 10 11
12 11 10 10 9 8 7 6 7 7 7 7 7 7 7 8 9 11 12 13 10 7 8 7 6 6 7 6 5 4 2 2 2 2 1 1 2 0 2 3 3 3 3 3 3 2 1 2 3 4 4 4 5 7 8 9 10 10 10 10 10 10 11 11 11 11 12 12 11 11 11 11 11 11 10 9 9 8 10 10 10 11 12 12 12
13 12 11 11 10 9 7 7 8 8 7 8 8 8 8 9 10 11 13 14 12 8 8 8 6 6 7 6 5 5 3 3 3 2 2 2 2 0 1 2 2 2 2 3 3 3 3 2 3 3 3 3 4 5 6 8 8 9 9 9 10 11 12 13 12 12 12 12 12 12 11 11 12 11 10 11 11 11 12 12 12 13 13 13 13
13 13 11 11 10 8 8 8 8 8 8 8 8 9 8 9 10 11 12 13 13 11 9 8 7 6 6 6 6 5 4 4 4 3 2 2 2 1 1 2 3 4 3 3 3 4 4 3 3 2 2 4 5 5 6 7 7 8 8 8 9 11 12 13 13 12 12 12 13 14 13 12 12 10 9 11 12 13 13 13 13 14 15 14 13
14 13 11 10 10 9 8 8 9 9 9 9 8 9 9 9 11 12 13 12 12 11 10 8 7 5 5 6 6 6 5 5 5 4 3 2 2 2 1 3 4 5 5 4 4 3 3 3 3 3 2 2 4 5 5 6 6 6 6 6 7 9 10 11 11 12 12 12 14 15 14 13 12 11 11 12 13 14 15 14 14 14 14 14 13
14 14 12 11 10 9 9 9 9 10 9 8 8 9 9 10 11 12 12 11 10 10 9 8 7 7 6 6 7 8 8 7 6 5 4 3 2 1 1 3 4 5 6 6 5 4 3 3 3 3 3 3 2 2 4 5 6 5 6 6 6 7 8 8 9 10 11 12 14 14 13 12 11 12 13 13 14 15 16 15 15 14 14 14 14
15 15 13 12 11 10 9 10 10 9 8 8 8 9 9 10 11 12 11 10 10 9 8 7 7 7 6 7 8 10 11 9 8 7 6 4 3 2 0 2 4 5 6 6 6 5 4 5 5 4 4 3 3 3 4 4 4 4 5 6 6 7 7 7 8 8 9 10 11 12 11 10 9 10 13 14 14 15 15 15 15 15 15 15 15
16 16 14 13 12 11 10 10 10 9 8 8 8 9 9 10 11 12 10 10 9 8 8 7 6 6 6 6 8 9 10 9 8 9 8 7 5 4 2 1 3 4 5 6 5 5 6 6 6 5 4 3 3 3 4 4 4 4 3 4 5 6 6 7 7 7 7 7 8 9 8 8 8 7 10 11 12 14 14 15 15 15 15 16 16
17 17 16 14 13 12 11 11 10 10 9 9 9 9 10 10 11 11 10 10 9 8 8 6 6 7 6 6 5 5 6 7 9 9 9 9 8 6 4 2 1 3 5 5 5 6 7 7 7 5 4 3 3 3 3 3 4 5 4 3 3 3 4 5 5 4 5 6 6 7 6 7 7 7 8 9 9 10 11 12 13 14 15 15 16
18 18 17 15 13 13 12 12 11 11 10 10 10 10 10 11 11 10 10 10 8 8 8 7 7 7 5 4 4 4 4 5 7 9 9 9 9 9 6 4 1 1 3 3 4 6 6 7 6 6 5 4 3 3 3 3 4 4 4 4 3 3 3 4 4 3 4 5 5 5 5 6 6 6 7 8 8 8 9 10 11 12 13 13 13
20 19 18 16 14 14 14 13 12 12 11 11 10 10 11 11 10 10 11 9 7 7 8 8 8 8 6 4 3 4 4 4 5 7 8 9 10 11 8 5 4 2 1 1 2 4 5 6 6 6 6 5 4 3 2 3 3 3 4 4 4 4 3 3 3 3 3 4 4 5 5 5 5 5 6 6 7 7 8 9 10 11 12 12 12
20 20 19 18 16 15 14 14 13 12 12 11 11 11 11 11 11 11 11 9 7 7 7 8 9 9 9 7 5 4 2 3 5 5 7 9 10 10 9 7 6 4 3 2 2 3 3 5 5 6 6 6 6 4 2 2 2 3 4 4 4 4 4 4 4 4 4 4 5 5 5 5 5 5 5 5 6 7 7 8 9 10 10 11 11
20 20 20 19 18 16 15 15 14 13 13 13 12 12 12 12 12 12 11 10 9 8 7 8 9 9 9 9 8 5 3 3 5 5 5 7 9 10 9 8 7 7 5 5 5 4 2 2 3 4 4 5 6 5 4 4 4 4 4 4 4 5 5 5 5 5 5 6 6 6 7 6 6 6 6 6 6 7 7 8 9 10 10 10 11
20 20 20 20 19 17 16 16 15 14 14 14 13 13 13 13 13 12 11 11 10 9 8 9 9 9 10 10 9 8 6 4 4 5 5 6 8 9 10 9 9 9 8 8 7 7 5 2 1 2 2 3 4 5 4 4 3 3 3 3 3 4 5 5 6 6 6 6 7 8 8 8 8 8 7 7 7 7 7 8 9 10 10 11 11
21 21 21 20 19 18 17 17 16 16 15 15 14 14 13 13 13 13 12 11 11 10 9 9 9 10 10 10 10 10 9 8 6 6 7 6 7 8 9 10 10 11 11 10 9 8 7 5 2 1 1 0 1 3 3 3 3 2 2 2 2 2 3 4 5 5 5 6 7 8 9 9 9 9 8 8 8 8 8 8 8 9 10 11 12
22 22 22 21 20 18 18 18 17 16 16 16 15 15 14 13 13 13 12 12 11 10 9 9 10 11 11 11 11 10 10 10 9 8 8 8 8 8 8 9 10 11 12 12 11 10 9 7 5 3 2 1 2 3 3 3 3 2 1 1 0 1 2 3 4 4 4 5 6 8 9 9 10 9 9 9 9 9 9 9 9 9 10 11 11
23 23 23 22 21 20 19 18 18 17 17 17 16 15 14 13 13 13 12 12 11 11 9 9 11 12 12 12 11 10 9 9 9 9 8 8 8 7 8 8 9 10 11 12 12 11 10 9 7 6 5 4 3 4 5 5 5 5 4 3 3 3 3 4 4 4 4 5 6 7 8 8 9 9 9 9 9 10 10 10 10 10 10 10 11
24 24 24 23 22 21 20 20 19 18 18 17 17 15 14 14 14 13 12 12 11 11 10 10 12 12 12 12 12 11 10 9 8 9 9 8 8 7 8 9 9 9 10 12 13 13 12 11 10 9 9 8 6 5 6 6 7 7 7 6 6 6 6 6 6 5 5 5 5 6 7 7 8 8 9 9 10 10 11 11 11 11 12 11 11
25 25 25 24 23 22 21 21 20 19 19 18 17 15 14 15 15 14 12 12 12 12 11 11 12 13 13 13 13 12 11 9 8 9 10 10 9 8 9 9 8 8 9 11 13 14 13 13 11 11 11 11 10 8 7 7 8 8 9 9 9 9 9 8 8 7 7 7 7 7 8 8 8 8 9 9 10 10 11 12 12 13 13 13 14
25 24 24 24 23 22 21 21 21 20 20 19 18 16 15 15 16 14 13 12 12 13 12 11 12 13 13 14 14 13 12 10 10 9 9 9 9 8 9 8 8 8 9 9 11 12 12 12 11 11 12 12 12 11 10 9 9 9 10 11 11 11 11 11 10 9 9 9 10 10 10 10 10 10 10 10 11 11 12 13 14 14 15 15 16
25 24 24 23 22 22 21 21 21 21 21 20 18 17 16 16 16 15 14 13 14 14 13 13 13 12 13 14 13 13 12 12 11 11 10 9 9 9 9 8 7 7 8 8 9 9 9 9 9 10 10 11 12 12 12 12 11 11 11 12 12 12 12 12 12 11 11 10 11 11 12 12 13 13 13 13 13 14 14 15 15 16 17 18 18
27 25 24 23 23 22 22 21 21 22 21 20 19 18 17 17 17 16 14 14 15 16 15 14 14 13 12 12 11 11 11 12 12 12 12 11 11 11 11 9 7 7 7 7 8 8 7 8 8 7 7 8 10 11 12 12 12 12 12 12 12 13 13 12 12 12 12 12 11 12 12 13 14 15 15 16 16 16 16 16 16 17 17 19 19
27 26 25 24 23 23 22 22 22 22 22 21 20 18 17 18 18 17 15 15 16 17 16 15 15 13 12 11 10 10 10 11 13 13 12 12 12 12 13 11 10 9 8 7 8 7 7 7 6 6 7 9 10 11 11 12 12 12 11 11 11 11 12 12 12 12 12 12 12 13 13 14 15 15 16 17 18 18 18 18 18 18 18 18 19
26 25 25 24 24 24 23 23 23 23 22 21 20 19 18 19 18 17 16 16 17 18 17 17 16 15 13 12 11 10 10 10 12 13 13 13 13 13 13 13 12 11 10 10 9 9 9 7 7 8 11 13 13 12 11 12 12 11 10 11 11 11 12 12 12 12 13 13 14 15 16 17 17 17 17 17 18 18 19 19 19 19 19 19 19
28 26 25 25 25 25 24 24 24 24 23 22 21 20 20 20 19 18 18 18 18 19 19 18 17 16 15 14 13 11 10 10 11 13 14 14 14 13 13 14 14 13 12 12 12 12 11 9 9 11 13 13 12 11 11 11 11 11 11 11 12 13 13 12 12 14 15 15 16 17 18 18 18 19 18 19 19 19 19 19 19 20 20 20 19
29 28 27 27 27 26 26 25 25 25 25 24 22 21 21 21 20 20 19 19 20 20 20 20 19 18 16 15 14 13 11 11 12 12 14 15 15 14 14 14 15 14 14 14 14 15 14 13 13 14 13 12 12 11 11 11 12 12 12 12 12 13 13 13 13 15 16 17 18 19 19 19 19 19 19 19 19 19 19 18 19 19 20 20 20
29 29 29 29 29 28 27 27 27 27 26 25 24 22 22 22 22 21 20 20 21 21 21 21 21 19 18 17 16 15 13 13 13 13 13 15 16 16 16 15 15 16 15 16 16 17 17 16 14 14 13 12 12 12 11 12 13 13 13 13 13 12 12 13 14 15 15 17 18 19 19 19 18 18 17 18 18 18 18 19 19 20 20 21 22
30 30 30 31 31 30 30 29 29 28 27 27 26 24 23 23 23 23 22 22 22 22 22 22 22 21 20 18 18 17 16 15 14 14 14 14 16 17 18 18 17 17 17 17 17 17 18 16 14 13 13 12 12 12 12 12 13 14 15 15 14 13 13 14 14 14 15 16 17 18 18 18 17 17 16 16 17 17 18 19 19 20 21 22 23
31 31 31 31 32 32 32 31 31 30 29 28 28 27 25 24 24 25 24 24 23 22 22 22 22 21 20 20 20 20 18 17 16 16 15 15 15 17 18 19 19 18 18 18 18 17 17 16 14 13 13 13 12 11 12 12 13 14 15 15 14 14 14 15 15 15 16 17 17 17 16 16 17 17 17 18 19 19 19 20 21 21 22 22 23
33 32 31 32 33 34 34 33 33 32 31 30 30 29 27 26 26 26 26 25 24 23 22 21 22 21 21 21 21 21 20 19 18 18 17 16 16 17 18 18 19 19 19 18 18 17 16 16 15 13 13 14 13 12 12 12 13 14 14 14 14 14 14 15 16 16 17 18 18 17 16 16 17 18 19 20 21 21 21 21 22 23 23 24 24
35 33 32 34 35 36 36 36 35 34 33 32 31 30 29 27 27 27 27 26 26 24 22 21 21 21 21 21 21 21 21 20 19 19 19 18 18 17 18 18 18 19 19 19 18 17 17 16 15 14 14 14 14 13 12 12 13 13 14 15 15 15 15 17 18 19 20 20 20 19 18 18 19 20 21 22 23 23 23 23 23 24 24 25 25
36 34 34 35 37 38 38 37 37 36 35 34 32 31 30 29 28 28 28 28 27 26 24 23 22 21 21 21 21 21 21 21 20 19 19 18 18 19 19 18 17 18 19 20 19 18 18 17 16 15 15 14 13 13 13 12 13 14 14 16 17 18 18 19 20 21 21 20 20 20 20 20 21 23 24 24 24 24 23 23 24 24 24 24 24
38 36 35 36 39 40 39 39 38 37 36 36 34 32 31 31 30 29 29 29 28 27 26 24 23 22 21 22 22 22 22 21 21 20 19 18 18 19 18 18 17 17 19 20 20 19 19 18 17 17 16 15 14 13 13 13 14 15 15 16 18 20 20 19 19 19 19 19 19 20 20 21 22 24 25 25 25 24 24 24 25 25 24 23 22
40 38 36 37 39 40 40 40 39 39 38 38 36 34 33 32 32 31 30 30 29 28 27 26 25 24 23 22 23 23 23 22 21 21 20 18 18 19 19 18 19 19 19 20 20 20 20 20 19 17 16 15 14 14 13 14 14 16 16 17 19 21 20 19 18 18 18 19 19 19 19 20 21 23 24 25 25 24 23 24 25 25 24 22 21
41 40 38 37 38 40 41 41 41 41 40 40 39 37 35 34 33 33 32 31 30 29 28 27 27 26 25 24 24 23 22 22 21 21 20 20 20 21 21 21 21 20 19 20 21 21 20 20 19 17 16 15 14 13 14 14 15 16 18 19 20 20 19 18 19 19 20 19 19 19 19 19 20 22 24 26 26 25 25 25 25 23 22 22 22
42 42 40 39 39 40 41 42 42 43 43 43 41 38 36 35 35 34 33 32 31 30 29 28 28 27 26 25 24 23 22 22 22 22 22 22 22 23 22 21 21 20 19 19 20 20 20 19 18 16 16 15 14 13 13 14 15 17 18 19 20 19 18 19 19 19 19 18 17 17 18 19 20 21 23 25 26 26 26 26 25 23 22 22 22
43 43 42 41 40 39 40 42 43 45 45 44 42 39 37 36 36 36 35 33 31 30 29 29 28 27 26 25 25 24 23 24 24 24 23 24 24 24 22 20 20 20 20 20 20 20 19 18 17 17 16 15 14 13 13 14 15 17 18 18 18 17 17 19 20 19 19 17 15 17 19 19 20 22 25 26 25 25 25 24 24 23 23 24 24
43 44 43 43 41 40 41 42 44 46 47 45 43 40 38 37 37 37 36 34 33 31 30 29 28 26 25 25 25 24 24 25 25 24 24 24 25 24 22 20 19 20 21 20 18 19 19 18 18 17 16 15 14 14 14 15 16 17 17 16 17 17 18 20 19 18 17 17 17 18 19 19 22 24 26 27 26 24 24 24 24 24 25 26 26
44 44 44 43 42 42 42 43 44 46 47 46 44 42 39 38 38 38 37 35 34 32 30 29 28 27 25 25 25 24 24 24 24 24 23 22 23 22 21 19 19 21 21 19 17 19 20 19 18 18 16 15 15 15 15 16 16 16 16 17 18 19 18 18 17 16 16 18 19 19 19 22 24 23 23 24 25 25 25 25 25 25 26 26 26
45 46 45 44 44 43 43 43 43 45 47 47 45 43 41 39 39 38 37 36 35 33 31 29 28 27 26 25 24 23 24 24 23 23 21 20 20 19 18 18 20 21 21 18 18 20 20 20 19 17 17 17 16 16 16 16 16 16 17 19 19 18 17 17 18 18 18 19 20 19 20 21 20 19 20 22 24 25 26 26 25 23 22 22 21
47 46 45 45 45 45 44 43 43 44 46 47 46 44 42 41 40 38 37 37 36 34 32 30 29 28 26 25 23 23 24 24 22 21 20 20 20 17 15 17 19 20 20 19 19 20 20 19 17 15 16 17 16 16 16 16 17 18 19 20 19 19 18 16 16 16 16 16 18 17 17 18 17 17 19 23 25 26 26 26 24 20 18 17 17
47 46 46 46 47 46 45 44 44 45 45 45 45 44 43 41 40 39 39 38 37 35 33 31 29 28 26 25 23 23 24 23 20 19 19 19 18 16 14 16 19 20 20 20 20 20 20 18 16 15 16 16 15 15 16 17 18 19 18 17 16 15 14 13 13 14 13 13 14 15 16 18 17 17 20 24 26 27 25 23 20 18 17 17 17
48 48 48 48 48 47 47 45 45 45 45 45 45 44 43 42 41 41 40 38 38 36 34 31 30 29 27 25 24 23 24 23 19 17 17 16 16 16 15 17 20 21 21 20 20 20 19 17 17 16 16 16 15 16 16 17 17 17 16 14 12 11 12 12 11 11 10 9 11 14 17 18 18 18 22 25 26 25 23 21 18 18 18 19 19
48 48 48 49 48 48 48 47 46 45 45 44 43 44 43 42 41 42 40 38 38 37 35 32 30 29 27 26 25 24 24 22 19 17 17 17 18 18 18 20 21 22 22 21 20 20 19 17 16 16 15 15 16 16 16 16 15 15 15 15 13 11 10 9 7 8 9 9 11 15 18 19 18 19 21 23 24 22 21 21 22 21 21 23 24
48 47 48 49 49 49 48 48 47 46 45 44 43 44 43 42 42 41 39 38 39 38 35 33 31 30 29 27 26 25 24 22 20 18 19 20 19 19 20 22 23 22 21 21 20 19 18 16 16 15 15 15 15 15 14 14 14 14 14 13 11 8 6 4 5 7 9 9 11 17 19 18 18 18 18 19 20 20 21 24 25 26 26 26 26
Wind_Direction
200 200 200 194 199 206 204 198 201 207 208 210 188 172 58 16 346 308 316 335 337 327 248 207 246 159 91 88 53 18 341 261 26 36 33 32 34 27 20 341 292 254 234 218 208 216 219 219 223 223 216 210 215 217 209 209 215 214 211 214 216 212 213 218 223 227 229 232 228 227 229 222 219 231 238 239 234 229 228 234 234 240 251 261 272
201 201 198 195 201 208 212 212 216 231 227 221 217 203 217 266 274 290 307 326 326 319 323 315 283 266 261 26 41 25 351 271 260 320 342 359 20 18 20 11 337 294 255 239 216 219 223 219 225 231 227 216 221 226 217 213 216 214 212 215 219 218 222 223 225 230 231 234 236 233 235 235 235 239 246 251 255 254 250 252 252 250 252 258 267
202 202 199 197 205 211 216 220 227 241 241 241 249 255 267 284 295 284 288 310 323 325 322 305 312 285 262 284 305 341 354 299 268 273 304 321 345 354 3 9 353 341 278 261 244 235 237 227 227 231 233 225 227 233 230 225 220 215 219 221 220 219 225 228 229 234 236 237 237 234 237 242 246 249 254 260 269 275 273 271 272 271 266 266 270
204 205 204 204 213 218 222 227 231 242 249 256 264 274 290 299 291 287 298 312 317 340 326 293 295 279 277 295 307 313 307 289 302 289 287 301 324 342 344 348 348 355 347 323 319 245 240 231 229 228 227 227 231 239 239 235 229 222 224 230 231 228 229 231 233 236 238 242 241 238 238 241 249 254 260 264 271 277 277 276 276 277 277 279 281
207 208 210 212 219 225 231 236 239 249 260 265 268 280 297 295 288 296 311 310 310 332 334 284 266 267 288 298 309 314 284 256 300 298 286 285 302 331 331 329 334 339 348 6 15 251 233 227 232 231 223 221 226 237 243 243 240 234 232 236 238 237 234 237 241 240 240 242 241 240 239 242 248 254 262 267 271 273 275 276 274 273 277 279 280
209 211 215 217 222 228 233 240 248 255 265 270 273 281 290 293 294 302 308 309 312 313 307 282 259 266 283 293 313 323 277 256 298 304 296 279 278 326 329 323 322 317 333 9 23 298 257 240 241 242 232 227 227 234 245 249 246 240 238 241 244 243 240 240 245 246 247 246 245 246 245 248 251 253 259 268 273 276 278 280 279 275 272 272 273
212 215 219 221 226 231 232 236 245 253 264 273 278 282 286 291 296 301 303 309 311 288 277 282 267 265 276 285 313 327 279 254 290 295 305 259 201 351 340 328 319 304 309 336 357 15 295 265 251 251 246 244 242 240 246 248 246 242 241 247 251 252 249 246 246 249 253 254 252 254 254 257 260 259 257 260 265 272 278 280 280 278 273 270 268
216 219 222 227 234 238 238 237 242 252 264 275 282 285 288 288 293 301 302 307 309 279 261 274 274 265 272 282 305 314 276 237 245 248 278 183 177 315 349 345 334 307 298 306 319 340 315 282 275 271 261 258 254 250 252 250 248 244 241 247 254 256 254 251 249 249 255 260 258 257 256 257 260 262 264 265 263 261 265 268 273 277 277 275 272
219 223 225 230 238 243 244 244 248 255 263 273 281 284 288 290 293 301 302 307 310 292 271 273 273 261 262 267 278 293 273 238 238 239 248 224 214 294 24 17 18 357 327 309 307 315 319 311 303 289 273 267 260 255 255 258 261 258 249 249 255 259 258 258 259 259 263 268 268 265 262 259 258 260 264 267 266 263 264 265 268 270 271 273 275
220 222 226 231 237 240 243 250 255 259 265 271 279 283 289 294 298 301 299 302 304 302 298 286 273 261 255 253 252 274 280 249 243 255 257 232 208 157 71 38 28 19 5 348 324 316 316 319 323 298 265 257 261 262 263 266 270 271 268 265 264 265 262 261 264 267 270 273 274 272 269 265 263 264 263 262 264 264 264 265 264 265 266 268 271
218 220 225 230 234 240 246 255 261 263 267 273 279 284 290 294 296 298 297 298 297 298 301 293 287 277 254 249 247 263 282 262 242 249 254 220 180 167 88 51 31 17 15 15 358 342 331 326 337 337 320 275 266 267 272 277 271 269 278 278 274 273 269 266 265 264 266 268 269 270 271 272 273 273 268 264 265 265 265 264 263 264 268 269 269
218 220 225 229 234 242 249 255 260 263 268 275 281 283 287 290 292 295 296 298 297 293 291 292 296 289 264 253 249 259 279 267 241 236 237 214 183 199 48 49 36 20 13 17 17 13 9 2 6 2 356 348 322 297 290 291 286 284 287 281 281 282 280 280 275 268 267 269 270 271 273 274 276 278 275 270 268 269 270 270 269 268 270 272 271
220 222 226 230 235 242 249 253 258 265 270 275 279 282 285 291 294 295 296 301 301 295 286 281 281 277 264 257 255 264 278 269 241 234 235 226 224 238 334 24 27 24 9 9 17 22 29 34 33 26 14 1 353 342 327 319 312 305 292 283 283 283 283 285 283 279 276 276 278 280 281 279 277 276 275 272 268 268 270 271 273 274 273 273 274
224 226 227 231 237 243 248 253 258 264 271 275 280 286 290 295 296 294 297 301 300 290 281 276 266 256 248 254 263 269 274 260 235 232 235 232 234 241 254 319 8 17 6 8 24 43 56 57 50 42 33 14 351 332 325 327 322 315 309 298 291 285 284 283 281 283 282 280 282 289 295 297 295 288 281 279 273 270 271 271 273 275 275 275 276
228 229 230 233 238 243 248 252 256 261 269 276 281 288 292 294 295 294 295 297 296 286 275 262 251 251 249 254 256 255 255 241 230 232 234 234 233 238 246 248 1 10 0 13 49 72 71 63 53 42 30 6 331 314 313 319 317 322 333 333 324 317 309 300 294 291 289 292 294 298 307 307 305 301 290 289 285 277 275 275 275 276 278 279 280
231 233 234 236 239 244 247 250 255 259 266 273 279 286 290 291 293 292 290 291 295 289 275 255 244 247 247 246 231 219 227 222 226 234 234 232 230 232 239 238 221 7 352 13 81 96 76 61 52 39 27 4 331 317 315 320 326 331 336 338 343 345 340 326 321 316 304 305 305 304 309 306 301 297 291 292 290 286 284 282 280 280 282 285 285
232 235 237 238 241 243 246 250 254 258 264 271 278 283 286 288 290 288 284 284 284 278 270 257 249 247 240 226 200 203 220 213 220 236 233 224 223 228 238 239 217 204 304 337 127 116 81 64 58 44 34 26 15 350 318 318 333 346 349 351 357 359 7 7 356 352 336 326 323 320 319 314 308 304 301 300 298 296 292 287 284 282 283 284 284
232 235 238 239 240 242 244 248 253 258 264 270 276 282 286 286 286 284 282 280 271 261 257 256 257 255 242 223 195 178 192 212 217 230 229 220 221 228 238 238 216 200 215 217 190 150 97 69 57 46 36 33 34 32 22 23 32 36 35 29 30 27 24 25 20 17 9 359 350 344 339 333 328 321 314 309 304 299 295 293 293 291 288 286 284
233 235 238 239 240 240 243 247 252 257 262 268 274 280 282 282 282 282 282 278 271 261 250 254 260 254 237 223 212 192 174 209 217 222 229 225 225 228 237 238 219 208 211 211 205 192 167 82 59 47 40 38 44 55 64 70 64 54 51 47 47 46 40 31 24 19 11 6 1 356 354 348 342 334 322 313 307 302 297 296 296 296 297 296 294
234 237 238 239 239 240 242 246 250 254 259 266 272 275 277 280 281 282 283 280 279 271 253 250 252 245 233 224 222 219 217 229 227 225 231 236 236 234 240 243 229 220 218 215 212 208 216 215 102 52 40 42 59 76 85 88 79 62 56 54 52 46 38 32 24 19 13 8 1 355 351 349 346 340 329 317 309 304 300 297 296 297 297 298 298
235 237 238 239 240 241 243 245 248 253 259 265 268 271 275 278 279 281 284 282 280 274 259 250 238 233 233 228 229 231 233 241 245 238 236 240 244 243 249 253 244 233 224 220 220 218 225 231 217 179 66 42 107 112 112 115 112 99 89 75 62 39 22 15 9 6 2 356 351 346 341 338 336 333 329 322 313 307 303 299 298 297 297 297 297
233 235 236 238 240 241 243 245 248 252 257 260 263 268 272 273 274 277 279 278 274 268 260 248 231 227 234 233 232 235 237 244 249 249 247 248 250 248 251 253 251 246 236 227 227 227 234 240 237 232 238 252 216 195 191 183 182 171 160 178 337 347 345 344 339 334 333 334 336 335 335 332 329 327 322 317 311 307 305 303 300 298 296 294 293
233 235 235 237 240 241 243 245 248 250 253 257 260 265 268 266 268 271 272 273 270 262 254 240 227 226 232 235 234 237 243 248 248 248 249 252 255 250 247 247 250 255 249 237 233 235 241 247 248 245 248 258 254 233 226 218 216 222 228 237 251 271 292 312 316 309 309 316 324 328 331 331 331 330 325 319 313 307 304 302 301 299 297 294 292
233 234 236 237 239 241 242 245 247 249 252 255 257 261 264 263 264 267 268 268 262 254 247 233 222 222 230 237 237 237 246 252 249 249 247 246 250 247 249 253 253 257 255 244 239 241 244 250 254 253 253 258 262 259 247 233 226 230 237 243 252 262 270 285 297 297 294 299 309 315 318 322 324 325 324 322 318 314 310 306 303 300 298 296 293
232 234 236 237 239 242 243 245 248 249 251 253 256 257 259 261 262 264 264 262 254 246 242 232 223 222 228 235 236 237 246 252 252 253 251 250 251 247 250 255 256 257 255 246 244 247 250 253 258 260 260 261 264 268 265 251 240 239 240 244 252 262 268 277 287 293 294 295 298 300 300 301 304 308 311 312 311 310 308 306 304 301 298 295 293
232 235 238 239 241 243 245 248 248 247 247 250 253 253 255 257 259 259 258 256 248 240 236 232 225 222 226 231 233 235 241 247 253 256 252 251 251 246 249 255 257 258 257 252 250 253 256 260 263 264 266 267 268 271 273 267 259 253 250 251 256 263 269 275 283 289 294 296 297 297 296 295 294 296 297 299 300 300 299 298 297 296 294 293 292
233 236 239 241 242 244 247 249 248 245 244 245 248 250 251 253 254 255 252 248 243 236 233 233 229 224 225 227 229 233 237 242 250 254 251 250 249 247 249 254 254 255 259 263 264 264 266 271 273 272 272 273 272 273 274 274 273 269 263 262 266 269 272 279 286 291 296 297 297 296 296 296 296 296 295 295 294 293 293 293 293 293 292 291 290
233 234 237 240 242 244 246 248 248 245 242 242 245 247 247 248 250 250 247 243 240 235 231 232 232 226 226 228 230 236 241 241 243 247 250 252 254 253 250 247 247 251 254 261 266 272 278 282 280 280 282 283 284 280 276 275 277 276 273 272 273 273 275 284 291 295 298 297 296 295 295 297 297 296 295 294 292 291 290 291 292 292 291 290 289
232 232 234 237 240 242 245 247 246 245 243 241 242 245 245 245 245 245 243 240 239 236 232 230 230 226 227 233 236 241 246 244 243 244 248 254 258 258 254 249 248 250 252 257 260 265 278 286 279 284 300 307 306 299 289 282 280 279 280 282 280 275 276 285 292 295 295 294 296 298 300 299 298 298 297 296 294 291 290 290 291 293 292 290 288
231 230 231 234 237 240 243 244 244 243 243 241 241 242 241 241 242 241 240 238 238 236 232 230 229 227 228 234 239 244 250 251 248 247 248 254 261 263 259 254 252 252 254 261 266 267 276 285 284 292 308 313 312 308 301 292 286 283 281 282 280 277 280 286 292 294 294 295 299 302 303 302 301 302 303 302 299 295 293 292 293 293 292 291 289
231 230 231 232 234 237 240 242 242 241 241 241 240 239 239 238 239 240 237 236 236 235 233 231 230 229 230 234 238 243 250 255 255 252 251 252 257 263 261 256 256 256 257 262 267 273 279 285 290 298 306 308 306 307 304 298 293 288 282 279 277 278 281 284 289 294 296 297 298 300 302 302 301 301 303 305 303 300 296 294 293 293 293 293 291
232 231 232 233 233 235 238 240 240 239 240 241 239 237 237 236 237 239 238 236 236 236 234 234 232 231 232 235 240 244 249 255 258 257 254 252 252 255 257 256 255 255 257 261 267 275 282 286 292 298 301 301 303 307 305 300 297 293 289 285 282 280 280 281 288 296 299 298 298 299 300 300 299 299 301 304 303 300 296 293 292 292 292 293 292
234 233 233 233 234 234 236 237 238 238 238 239 238 236 236 236 236 238 238 236 237 236 235 236 236 234 235 238 242 245 247 253 258 260 259 255 251 250 251 252 252 252 255 261 267 275 282 286 291 295 297 299 303 306 304 298 296 295 295 294 290 284 280 283 291 297 301 302 303 303 301 298 297 297 299 302 302 298 293 290 289 289 289 290 290
237 234 233 233 234 234 234 235 236 236 236 237 238 236 236 236 237 238 237 237 238 237 235 236 236 236 237 240 244 246 247 250 255 259 261 260 256 252 250 250 252 255 256 260 265 271 278 284 288 288 291 297 299 299 294 288 287 289 292 293 290 284 282 286 293 299 305 309 310 310 306 299 295 294 297 301 304 302 298 293 289 287 286 286 287
237 235 233 233 233 233 234 234 234 234 235 235 236 235 235 236 236 237 237 238 239 239 238 237 237 237 238 241 244 246 247 248 252 256 261 263 262 259 256 254 254 257 258 259 262 266 273 279 281 281 287 293 294 292 285 280 279 282 285 286 283 281 283 288 293 299 306 310 312 313 308 298 292 290 294 302 306 306 303 298 294 290 288 287 287
237 235 233 232 233 233 233 233 233 233 233 233 234 235 235 235 236 237 238 238 239 240 241 241 240 239 239 241 244 247 247 248 251 256 259 261 263 262 261 260 258 259 259 259 260 264 269 272 273 279 285 289 290 287 281 277 276 278 279 280 279 280 284 288 293 298 303 306 310 311 306 295 289 289 294 302 306 306 305 301 298 296 294 293 292
236 234 232 231 232 232 232 232 231 231 232 232 234 234 234 235 236 237 239 239 239 239 241 243 243 242 241 241 243 247 249 249 251 255 257 258 261 263 263 264 263 262 261 260 260 262 263 265 271 277 282 284 285 283 279 276 275 276 276 278 281 285 290 293 296 296 296 300 304 307 303 294 290 291 295 300 305 308 307 304 301 300 299 298 298
237 235 232 231 231 230 230 230 230 231 231 232 233 234 234 235 236 237 239 239 239 239 239 241 243 243 243 243 244 247 249 251 252 254 255 256 257 259 261 264 265 265 264 262 261 261 260 263 269 276 279 281 281 279 276 272 272 275 279 283 287 289 293 298 298 296 296 297 300 304 302 294 291 292 294 298 305 308 307 305 304 304 304 305 305
237 236 233 231 231 230 230 230 230 231 231 232 233 233 234 235 236 237 239 239 239 239 239 240 241 241 241 242 244 245 248 251 253 254 255 255 255 256 259 263 264 263 264 264 261 259 260 263 268 273 277 279 278 276 275 272 274 278 283 287 288 289 293 298 300 299 300 300 301 302 299 293 291 292 294 298 304 306 305 304 304 305 307 309 309
237 236 234 233 232 231 231 230 231 231 232 232 232 232 233 234 235 236 238 239 239 239 239 239 239 239 239 240 242 243 245 248 251 255 257 257 255 255 258 262 262 259 259 261 260 258 260 264 267 269 273 277 276 274 274 276 279 283 287 288 288 291 295 298 299 302 306 305 303 302 299 295 293 294 296 299 302 304 303 302 303 304 306 308 309
237 237 236 235 235 233 232 232 231 232 232 232 232 231 231 233 235 236 237 238 238 239 239 239 240 240 239 240 242 243 245 248 252 257 259 259 256 255 258 263 263 258 254 255 257 258 260 263 265 266 270 274 274 272 274 277 279 283 287 289 292 296 298 298 301 306 308 308 305 302 300 296 293 294 297 300 302 303 303 305 306 305 304 306 307
237 238 237 236 236 236 235 233 232 233 233 232 232 231 230 232 235 237 237 238 239 239 239 240 241 241 241 242 244 245 247 250 253 256 259 262 261 260 263 267 262 255 250 250 253 257 260 261 260 263 267 270 270 269 272 277 279 283 286 288 294 299 301 305 309 309 307 306 302 299 298 297 295 296 298 300 301 304 305 305 306 305 304 303 303
238 238 238 237 236 237 237 235 234 234 234 233 232 231 230 231 235 237 239 239 240 240 241 241 242 243 244 245 246 247 248 251 253 256 260 265 266 265 269 270 262 253 246 243 248 256 258 257 257 261 265 268 268 267 270 276 280 284 285 287 292 297 303 307 309 307 305 304 300 297 298 299 299 301 303 304 305 307 307 304 303 302 301 299 299
237 238 238 238 237 237 238 237 236 235 235 234 233 232 231 231 235 238 239 240 241 241 241 242 243 245 245 246 247 247 248 250 254 258 260 265 268 268 269 266 257 250 241 235 241 251 253 252 256 261 264 266 266 266 270 276 280 282 283 284 290 296 301 303 304 303 302 301 300 300 300 302 305 307 309 310 311 311 308 305 302 300 298 297 296
237 238 239 239 238 238 238 238 238 237 237 236 235 234 232 232 235 238 240 241 241 242 242 242 243 245 245 246 245 245 246 248 252 256 260 265 267 266 265 261 253 244 234 227 231 242 247 249 254 259 262 264 264 265 269 274 276 276 279 286 294 298 299 299 298 297 296 299 301 301 303 306 308 309 311 312 314 313 311 308 305 301 299 297 296
237 238 238 239 239 239 239 239 239 239 238 237 236 235 234 233 234 237 240 242 242 242 243 243 243 244 244 244 243 243 243 245 249 253 257 260 261 260 257 255 250 239 225 217 222 233 241 247 251 256 261 262 262 265 268 271 271 273 281 290 295 295 294 294 294 295 297 301 304 305 306 308 310 311 313 313 314 315 314 312 311 309 306 303 302
238 238 238 239 240 240 240 241 241 240 239 238 237 236 235 234 235 237 239 241 242 243 242 242 242 243 242 241 240 239 240 242 245 248 251 254 255 251 247 247 244 234 220 215 222 232 239 244 248 252 258 260 262 265 267 269 272 278 286 291 292 292 293 293 295 299 302 304 308 310 309 308 310 311 312 314 315 315 315 316 318 319 317 316 315
239 239 238 239 240 241 241 242 242 243 241 239 238 237 236 235 236 237 238 240 241 242 241 241 241 241 239 237 234 233 237 240 241 243 249 253 248 239 235 238 235 226 217 217 224 231 236 240 244 249 254 258 262 264 267 273 279 285 289 291 292 293 292 292 296 303 305 305 310 314 312 310 311 310 310 313 315 315 317 321 323 323 322 322 321
239 239 238 238 239 241 242 242 243 244 244 243 240 239 238 237 237 237 237 238 240 241 240 239 239 238 235 231 228 229 233 236 236 239 245 248 240 227 223 228 225 218 215 218 222 226 230 235 242 247 253 259 262 265 270 277 282 287 290 291 291 287 286 291 298 302 306 305 307 313 313 310 309 309 311 315 316 318 321 325 327 324 323 324 322
239 239 239 239 239 240 242 242 243 244 246 246 244 242 241 239 238 238 238 237 238 239 238 237 238 236 231 226 224 225 228 230 230 234 238 236 231 223 218 218 216 212 213 215 216 220 226 232 239 246 252 258 263 268 274 278 282 286 287 287 288 286 286 292 294 299 311 311 303 309 313 310 309 312 315 318 321 323 324 325 327 328 328 327 325
239 239 238 239 240 241 241 243 244 244 246 247 246 246 245 242 241 241 239 237 237 237 236 235 234 231 227 224 221 220 223 224 225 232 234 225 219 217 214 211 208 206 209 212 214 219 226 231 237 245 251 258 263 268 274 279 282 284 284 285 287 288 289 291 290 301 314 310 300 309 315 311 309 314 319 321 322 323 325 325 325 327 329 328 325